Time,TemperatureF,DewpointF,PressureIn,WindDirection,WindDirectionDegrees,WindSpeedMPH,WindSpeedGustMPH,Humidity,HourlyPrecipIn,Conditions,Clouds,dailyrainin,SoftwareType,DateUTC
2013-08-31 00:00:00,76.8,60.0,29.94,ENE,65,0.0,0.0,56,0.00,,---,0.00,VWS V14.01,2013-08-31 04:00:00,
2013-08-31 00:01:00,76.8,60.0,29.94,ENE,65,0.0,0.0,56,0.00,,---,0.00,VWS V14.01,2013-08-31 04:01:00,
2013-08-31 00:03:00,76.8,60.0,29.94,ENE,65,0.0,0.0,56,0.00,,---,0.00,VWS V14.01,2013-08-31 04:03:00,
2013-08-31 00:08:00,76.6,59.8,29.94,ENE,65,0.0,0.0,56,0.00,,---,0.00,VWS V14.01,2013-08-31 04:08:00,
2013-08-31 00:13:00,76.6,59.3,29.94,ENE,65,0.0,0.0,55,0.00,,---,0.00,VWS V14.01,2013-08-31 04:13:00,
2013-08-31 00:18:00,76.5,60.6,29.94,ENE,65,0.0,0.0,58,0.00,,---,0.00,VWS V14.01,2013-08-31 04:18:00,
2013-08-31 00:23:00,76.3,59.5,29.94,ENE,65,0.0,0.0,56,0.00,,---,0.00,VWS V14.01,2013-08-31 04:23:00,
2013-08-31 00:28:00,76.1,60.8,29.94,ENE,65,0.0,0.0,59,0.00,,---,0.00,VWS V14.01,2013-08-31 04:28:00,
2013-08-31 00:33:00,75.7,59.4,29.94,ENE,65,0.0,0.0,57,0.00,,---,0.00,VWS V14.01,2013-08-31 04:33:00,
2013-08-31 00:38:00,75.7,59.4,29.94,ENE,65,0.0,0.0,57,0.00,,---,0.00,VWS V14.01,2013-08-31 04:38:00,
2013-08-31 00:43:00,75.6,59.3,29.94,ENE,65,0.0,0.0,57,0.00,,---,0.00,VWS V14.01,2013-08-31 04:43:00,
2013-08-31 00:48:00,75.4,60.1,29.94,ENE,65,0.0,0.0,59,0.00,,---,0.00,VWS V14.01,2013-08-31 04:48:00,
2013-08-31 00:53:00,75.4,59.6,29.94,ENE,65,0.0,0.0,58,0.00,,---,0.00,VWS V14.01,2013-08-31 04:53:00,
2013-08-31 00:58:00,75.4,59.6,29.94,ENE,65,0.0,0.0,58,0.00,,---,0.00,VWS V14.01,2013-08-31 04:58:00,
2013-08-31 01:03:00,75.2,59.4,29.94,ENE,65,0.0,0.0,58,0.00,,---,0.00,VWS V14.01,2013-08-31 05:03:00,
2013-08-31 01:08:00,75.2,59.4,29.94,ENE,65,0.0,0.0,58,0.00,,---,0.00,VWS V14.01,2013-08-31 05:08:00,
2013-08-31 01:13:00,75.0,59.7,29.94,ENE,65,0.0,0.0,59,0.00,,---,0.00,VWS V14.01,2013-08-31 05:13:00,
2013-08-31 01:18:00,75.0,59.7,29.94,ENE,65,0.0,0.0,59,0.00,,---,0.00,VWS V14.01,2013-08-31 05:18:00,
2013-08-31 01:23:00,75.0,59.7,29.94,ENE,65,0.0,0.0,59,0.00,,---,0.00,VWS V14.01,2013-08-31 05:23:00,
2013-08-31 01:28:00,75.0,60.2,29.94,ENE,65,0.0,0.0,60,0.00,,---,0.00,VWS V14.01,2013-08-31 05:28:00,
2013-08-31 01:33:00,75.0,60.2,29.91,ENE,65,0.0,0.0,60,0.00,,---,0.00,VWS V14.01,2013-08-31 05:33:00,
2013-08-31 01:38:00,74.8,60.0,29.91,ENE,65,0.0,0.0,60,0.00,,---,0.00,VWS V14.01,2013-08-31 05:38:00,
2013-08-31 01:43:00,74.8,60.5,29.91,ENE,65,0.0,0.0,61,0.00,,---,0.00,VWS V14.01,2013-08-31 05:43:00,
2013-08-31 01:48:00,74.7,60.3,29.91,ENE,65,0.0,0.0,61,0.00,,---,0.00,VWS V14.01,2013-08-31 05:48:00,
2013-08-31 01:53:00,74.5,60.2,29.91,ENE,65,0.0,0.0,61,0.00,,---,0.00,VWS V14.01,2013-08-31 05:53:00,
2013-08-31 01:58:00,74.3,60.0,29.91,ENE,65,0.0,0.0,61,0.00,,---,0.00,VWS V14.01,2013-08-31 05:58:00,
2013-08-31 02:03:00,74.3,60.0,29.91,ENE,65,0.0,0.0,61,0.00,,---,0.00,VWS V14.01,2013-08-31 06:03:00,
2013-08-31 02:08:00,74.1,59.8,29.91,ENE,65,0.0,0.0,61,0.00,,---,0.00,VWS V14.01,2013-08-31 06:08:00,
2013-08-31 02:13:00,73.9,59.7,29.91,ENE,65,0.0,0.0,61,0.00,,---,0.00,VWS V14.01,2013-08-31 06:13:00,
2013-08-31 02:18:00,73.9,59.7,29.91,ENE,65,0.0,0.0,61,0.00,,---,0.00,VWS V14.01,2013-08-31 06:18:00,
2013-08-31 02:23:00,73.8,59.5,29.91,ENE,65,0.0,0.0,61,0.00,,---,0.00,VWS V14.01,2013-08-31 06:23:00,
2013-08-31 02:28:00,73.8,59.5,29.91,ENE,65,0.0,0.0,61,0.00,,---,0.00,VWS V14.01,2013-08-31 06:28:00,
2013-08-31 02:33:00,73.6,59.3,29.88,ENE,65,0.0,0.0,61,0.00,,---,0.00,VWS V14.01,2013-08-31 06:33:00,
2013-08-31 02:38:00,73.6,59.8,29.88,ENE,65,0.0,0.0,62,0.00,,---,0.00,VWS V14.01,2013-08-31 06:38:00,
2013-08-31 02:43:00,73.6,59.8,29.88,ENE,65,0.0,0.0,62,0.00,,---,0.00,VWS V14.01,2013-08-31 06:43:00,
2013-08-31 02:48:00,73.4,59.6,29.88,ENE,65,0.0,0.0,62,0.00,,---,0.00,VWS V14.01,2013-08-31 06:48:00,
2013-08-31 02:53:00,73.4,59.6,29.88,ENE,65,0.0,0.0,62,0.00,,---,0.00,VWS V14.01,2013-08-31 06:53:00,
2013-08-31 02:58:00,73.2,59.4,29.88,ENE,65,0.0,0.0,62,0.00,,---,0.00,VWS V14.01,2013-08-31 06:58:00,
2013-08-31 03:03:00,73.2,59.4,29.88,ENE,65,0.0,0.0,62,0.00,,---,0.00,VWS V14.01,2013-08-31 07:03:00,
2013-08-31 03:08:00,73.2,59.9,29.88,ENE,65,0.0,0.0,63,0.00,,---,0.00,VWS V14.01,2013-08-31 07:08:00,
2013-08-31 03:13:00,73.0,59.7,29.88,ENE,65,0.0,0.0,63,0.00,,---,0.00,VWS V14.01,2013-08-31 07:13:00,
2013-08-31 03:18:00,73.0,59.7,29.88,ENE,65,0.0,0.0,63,0.00,,---,0.00,VWS V14.01,2013-08-31 07:18:00,
2013-08-31 03:23:00,73.0,59.7,29.88,ENE,65,0.0,0.0,63,0.00,,---,0.00,VWS V14.01,2013-08-31 07:23:00,
2013-08-31 03:28:00,72.9,59.5,29.88,ENE,65,0.0,0.0,63,0.00,,---,0.00,VWS V14.01,2013-08-31 07:28:00,
2013-08-31 03:33:00,72.9,59.5,29.88,ENE,65,0.0,0.0,63,0.00,,---,0.00,VWS V14.01,2013-08-31 07:33:00,
2013-08-31 03:38:00,72.9,59.5,29.88,ENE,65,0.0,0.0,63,0.00,,---,0.00,VWS V14.01,2013-08-31 07:38:00,
2013-08-31 03:43:00,72.9,59.5,29.88,ENE,65,0.0,0.0,63,0.00,,---,0.00,VWS V14.01,2013-08-31 07:43:00,
2013-08-31 03:48:00,72.7,59.4,29.88,ENE,65,0.0,0.0,63,0.00,,---,0.00,VWS V14.01,2013-08-31 07:48:00,
2013-08-31 03:53:00,72.7,59.4,29.88,ENE,65,0.0,0.0,63,0.00,,---,0.00,VWS V14.01,2013-08-31 07:53:00,
2013-08-31 03:58:00,72.7,59.8,29.88,ENE,65,0.0,0.0,64,0.00,,---,0.00,VWS V14.01,2013-08-31 07:58:00,
2013-08-31 04:03:00,72.5,59.6,29.88,ENE,65,0.0,0.0,64,0.00,,---,0.00,VWS V14.01,2013-08-31 08:03:00,
2013-08-31 04:08:00,72.5,59.6,29.88,ENE,65,0.0,0.0,64,0.00,,---,0.00,VWS V14.01,2013-08-31 08:08:00,
2013-08-31 04:13:00,72.5,59.6,29.88,ENE,65,0.0,0.0,64,0.00,,---,0.00,VWS V14.01,2013-08-31 08:13:00,
2013-08-31 04:18:00,72.5,59.6,29.88,ENE,65,0.0,0.0,64,0.00,,---,0.00,VWS V14.01,2013-08-31 08:18:00,
2013-08-31 04:23:00,72.3,59.5,29.88,ENE,65,0.0,0.0,64,0.00,,---,0.00,VWS V14.01,2013-08-31 08:23:00,
2013-08-31 04:28:00,72.3,59.5,29.88,ENE,65,0.0,0.0,64,0.00,,---,0.00,VWS V14.01,2013-08-31 08:28:00,
2013-08-31 04:33:00,72.3,59.5,29.88,ENE,65,0.0,0.0,64,0.00,,---,0.00,VWS V14.01,2013-08-31 08:33:00,
2013-08-31 04:38:00,72.3,59.9,29.88,ENE,65,0.0,0.0,65,0.00,,---,0.00,VWS V14.01,2013-08-31 08:38:00,
2013-08-31 04:43:00,72.3,59.9,29.88,ENE,65,0.0,0.0,65,0.00,,---,0.00,VWS V14.01,2013-08-31 08:43:00,
2013-08-31 04:48:00,72.1,59.7,29.88,ENE,65,0.0,0.0,65,0.00,,---,0.00,VWS V14.01,2013-08-31 08:48:00,
2013-08-31 04:53:00,72.1,59.7,29.88,ENE,65,0.0,0.0,65,0.00,,---,0.00,VWS V14.01,2013-08-31 08:53:00,
2013-08-31 04:58:00,72.0,59.6,29.88,ENE,65,0.0,0.0,65,0.00,,---,0.00,VWS V14.01,2013-08-31 08:58:00,
2013-08-31 05:03:00,72.0,59.6,29.88,ENE,65,0.0,0.0,65,0.00,,---,0.00,VWS V14.01,2013-08-31 09:03:00,
2013-08-31 05:08:00,71.8,59.4,29.88,ENE,65,0.0,0.0,65,0.00,,---,0.00,VWS V14.01,2013-08-31 09:08:00,
2013-08-31 05:13:00,71.8,59.4,29.88,ENE,65,0.0,0.0,65,0.00,,---,0.00,VWS V14.01,2013-08-31 09:13:00,
2013-08-31 05:18:00,71.6,59.2,29.88,ENE,65,0.0,0.0,65,0.00,,---,0.00,VWS V14.01,2013-08-31 09:18:00,
2013-08-31 05:23:00,71.6,59.2,29.88,ENE,65,0.0,0.0,65,0.00,,---,0.00,VWS V14.01,2013-08-31 09:23:00,
2013-08-31 05:28:00,71.6,59.2,29.88,ENE,65,0.0,0.0,65,0.00,,---,0.00,VWS V14.01,2013-08-31 09:28:00,
2013-08-31 05:33:00,71.4,59.5,29.88,ENE,65,0.0,0.0,66,0.00,,---,0.00,VWS V14.01,2013-08-31 09:33:00,
2013-08-31 05:38:00,71.4,59.5,29.88,ENE,65,0.0,0.0,66,0.00,,---,0.00,VWS V14.01,2013-08-31 09:38:00,
2013-08-31 05:43:00,71.4,59.5,29.88,ENE,65,0.0,0.0,66,0.00,,---,0.00,VWS V14.01,2013-08-31 09:43:00,
2013-08-31 05:48:00,71.4,59.5,29.91,ENE,65,0.0,0.0,66,0.00,,---,0.00,VWS V14.01,2013-08-31 09:48:00,
2013-08-31 05:53:00,71.4,59.9,29.91,ENE,65,0.0,0.0,67,0.00,,---,0.00,VWS V14.01,2013-08-31 09:53:00,
2013-08-31 05:58:00,71.6,59.7,29.91,ENE,65,0.0,0.0,66,0.00,,---,0.00,VWS V14.01,2013-08-31 09:58:00,
2013-08-31 06:03:00,71.6,59.7,29.91,ENE,65,0.0,0.0,66,0.00,,---,0.00,VWS V14.01,2013-08-31 10:03:00,
2013-08-31 06:08:00,71.6,59.7,29.91,ENE,65,0.0,0.0,66,0.00,,---,0.00,VWS V14.01,2013-08-31 10:08:00,
2013-08-31 06:13:00,71.4,59.9,29.91,ENE,65,0.0,0.0,67,0.00,,---,0.00,VWS V14.01,2013-08-31 10:13:00,
2013-08-31 06:19:00,71.4,59.9,29.91,ENE,65,0.0,0.0,67,0.00,,---,0.00,VWS V14.01,2013-08-31 10:19:00,
2013-08-31 06:23:00,71.4,59.9,29.91,ENE,65,0.0,0.0,67,0.00,,---,0.00,VWS V14.01,2013-08-31 10:23:00,
2013-08-31 06:28:00,71.4,59.9,29.91,ENE,65,0.0,0.0,67,0.00,,---,0.00,VWS V14.01,2013-08-31 10:28:00,
2013-08-31 06:33:00,71.4,59.9,29.91,ENE,65,0.0,0.0,67,0.00,,---,0.00,VWS V14.01,2013-08-31 10:33:00,
2013-08-31 06:38:00,71.4,59.9,29.91,ENE,65,0.0,0.0,67,0.00,,---,0.00,VWS V14.01,2013-08-31 10:38:00,
2013-08-31 06:44:00,71.4,59.9,29.91,ENE,65,0.0,0.0,67,0.00,,---,0.00,VWS V14.01,2013-08-31 10:44:00,
2013-08-31 06:48:00,71.2,59.7,29.91,ENE,65,0.0,0.0,67,0.00,,---,0.00,VWS V14.01,2013-08-31 10:48:00,
2013-08-31 06:53:00,71.2,60.2,29.91,ENE,65,0.0,0.0,68,0.00,,---,0.00,VWS V14.01,2013-08-31 10:53:00,
2013-08-31 06:58:00,71.2,60.2,29.91,ENE,65,0.0,0.0,68,0.00,,---,0.00,VWS V14.01,2013-08-31 10:58:00,
2013-08-31 07:04:00,71.2,60.2,29.91,ENE,65,0.0,0.0,68,0.00,,---,0.00,VWS V14.01,2013-08-31 11:04:00,
2013-08-31 07:09:00,71.2,60.2,29.91,ENE,65,0.0,0.0,68,0.00,,---,0.00,VWS V14.01,2013-08-31 11:09:00,
2013-08-31 07:13:00,71.2,60.2,29.91,ENE,65,0.0,0.0,68,0.00,,---,0.00,VWS V14.01,2013-08-31 11:13:00,
2013-08-31 07:18:00,71.1,60.0,29.91,ENE,65,0.0,0.0,68,0.00,,---,0.00,VWS V14.01,2013-08-31 11:18:00,
2013-08-31 07:24:00,71.1,60.0,29.91,ENE,65,0.0,0.0,68,0.00,,---,0.00,VWS V14.01,2013-08-31 11:24:00,
2013-08-31 07:29:00,71.1,60.0,29.91,ENE,65,0.0,0.0,68,0.00,,---,0.00,VWS V14.01,2013-08-31 11:29:00,
2013-08-31 07:34:00,71.1,60.4,29.91,ENE,65,0.0,0.0,69,0.00,,---,0.00,VWS V14.01,2013-08-31 11:34:00,
2013-08-31 07:39:00,71.2,60.6,29.91,ENE,65,0.0,0.0,69,0.00,,---,0.00,VWS V14.01,2013-08-31 11:39:00,
2013-08-31 07:44:00,71.2,60.6,29.91,ENE,65,0.0,0.0,69,0.00,,---,0.00,VWS V14.01,2013-08-31 11:44:00,
2013-08-31 07:49:00,71.4,60.7,29.94,ENE,65,0.0,0.0,69,0.00,,---,0.00,VWS V14.01,2013-08-31 11:49:00,
2013-08-31 07:54:00,71.6,60.9,29.94,ENE,65,0.0,0.0,69,0.00,,---,0.00,VWS V14.01,2013-08-31 11:54:00,
2013-08-31 07:59:00,71.8,61.1,29.94,ENE,65,0.0,0.0,69,0.00,,---,0.00,VWS V14.01,2013-08-31 11:59:00,
2013-08-31 08:04:00,72.0,61.7,29.94,ENE,65,0.0,0.0,70,0.00,,---,0.00,VWS V14.01,2013-08-31 12:04:00,
2013-08-31 08:09:00,72.1,62.2,29.94,ENE,65,0.0,0.0,71,0.00,,---,0.00,VWS V14.01,2013-08-31 12:09:00,
2013-08-31 08:14:00,72.5,62.6,29.94,ENE,65,0.0,0.0,71,0.00,,---,0.00,VWS V14.01,2013-08-31 12:14:00,
2013-08-31 08:19:00,73.2,64.4,29.94,ENE,65,0.0,0.0,74,0.00,,---,0.00,VWS V14.01,2013-08-31 12:19:00,
2013-08-31 08:24:00,73.6,64.4,29.94,South,171,0.0,0.0,73,0.00,,---,0.00,VWS V14.01,2013-08-31 12:24:00,
2013-08-31 08:29:00,74.1,65.7,29.94,South,171,0.0,0.0,75,0.00,,---,0.00,VWS V14.01,2013-08-31 12:29:00,
2013-08-31 08:34:00,74.5,65.7,29.94,South,171,0.0,0.0,74,0.00,,---,0.00,VWS V14.01,2013-08-31 12:34:00,
2013-08-31 08:39:00,74.8,66.4,29.94,South,171,0.0,0.0,75,0.00,,---,0.00,VWS V14.01,2013-08-31 12:39:00,
2013-08-31 08:44:00,75.2,66.7,29.94,South,171,0.0,0.0,75,0.00,,---,0.00,VWS V14.01,2013-08-31 12:44:00,
2013-08-31 08:49:00,75.4,66.9,29.94,SW,226,0.0,0.0,75,0.00,,---,0.00,VWS V14.01,2013-08-31 12:49:00,
2013-08-31 08:54:00,75.7,66.9,29.94,ESE,117,0.0,0.0,74,0.00,,---,0.00,VWS V14.01,2013-08-31 12:54:00,
2013-08-31 08:59:00,76.1,67.2,29.94,SSW,197,0.0,0.0,74,0.00,,---,0.00,VWS V14.01,2013-08-31 12:59:00,
2013-08-31 09:04:00,76.5,67.9,29.94,SE,140,0.0,0.0,75,0.00,,---,0.00,VWS V14.01,2013-08-31 13:04:00,
2013-08-31 09:09:00,77.0,68.5,29.94,SSW,200,0.0,0.0,75,0.00,,---,0.00,VWS V14.01,2013-08-31 13:09:00,
2013-08-31 09:14:00,77.4,68.8,29.94,South,173,0.0,0.0,75,0.00,,---,0.00,VWS V14.01,2013-08-31 13:14:00,
2013-08-31 09:19:00,77.9,69.3,29.94,SSW,211,0.0,0.0,75,0.00,,---,0.00,VWS V14.01,2013-08-31 13:19:00,
2013-08-31 09:24:00,78.3,69.3,29.94,SSE,153,3.1,3.1,74,0.00,,---,0.00,VWS V14.01,2013-08-31 13:24:00,
2013-08-31 09:29:00,78.6,69.2,29.94,SSW,210,0.0,0.0,73,0.00,,---,0.00,VWS V14.01,2013-08-31 13:29:00,
2013-08-31 09:34:00,79.2,69.8,29.94,SSW,199,0.0,0.0,73,0.00,,---,0.00,VWS V14.01,2013-08-31 13:34:00,
2013-08-31 09:39:00,79.7,69.9,29.94,ESE,109,6.3,6.3,72,0.00,,---,0.00,VWS V14.01,2013-08-31 13:39:00,
2013-08-31 09:44:00,80.1,69.8,29.94,SSW,193,0.0,3.1,71,0.00,,---,0.00,VWS V14.01,2013-08-31 13:44:00,
2013-08-31 09:49:00,80.2,69.6,29.94,SSE,155,3.6,3.6,70,0.00,,---,0.00,VWS V14.01,2013-08-31 13:49:00,
2013-08-31 09:54:00,80.6,69.5,29.94,SW,236,0.0,0.0,69,0.00,,---,0.00,VWS V14.01,2013-08-31 13:54:00,
2013-08-31 09:59:00,81.1,70.4,29.94,East,98,0.0,3.1,70,0.00,,---,0.00,VWS V14.01,2013-08-31 13:59:00,
2013-08-31 10:04:00,81.3,70.2,29.94,SSW,209,2.7,2.7,69,0.00,,---,0.00,VWS V14.01,2013-08-31 14:04:00,
2013-08-31 10:09:00,81.9,69.8,29.94,SW,231,0.0,0.0,67,0.00,,---,0.00,VWS V14.01,2013-08-31 14:09:00,
2013-08-31 10:14:00,82.2,69.3,29.94,SSE,165,2.7,5.8,65,0.00,,---,0.00,VWS V14.01,2013-08-31 14:14:00,
2013-08-31 10:19:00,82.6,69.6,29.97,SSE,165,4.0,4.0,65,0.00,,---,0.00,VWS V14.01,2013-08-31 14:19:00,
2013-08-31 10:24:00,82.8,69.8,29.97,SSW,192,3.6,3.6,65,0.00,,---,0.00,VWS V14.01,2013-08-31 14:24:00,
2013-08-31 10:29:00,82.8,67.5,29.97,WSW,240,3.6,3.6,60,0.00,,---,0.00,VWS V14.01,2013-08-31 14:29:00,
2013-08-31 10:34:00,82.9,68.1,29.94,SW,234,0.0,0.0,61,0.00,,---,0.00,VWS V14.01,2013-08-31 14:34:00,
2013-08-31 10:39:00,83.5,69.1,29.94,NNE,29,0.0,0.0,62,0.00,,---,0.00,VWS V14.01,2013-08-31 14:39:00,
2013-08-31 10:44:00,83.7,67.3,29.94,WSW,256,3.1,3.1,58,0.00,,---,0.00,VWS V14.01,2013-08-31 14:44:00,
2013-08-31 10:49:00,84.0,69.1,29.97,SE,138,0.0,0.0,61,0.00,,---,0.00,VWS V14.01,2013-08-31 14:49:00,
2013-08-31 10:54:00,84.4,68.5,29.97,East,91,4.9,5.4,59,0.00,,---,0.00,VWS V14.01,2013-08-31 14:54:00,
2013-08-31 10:59:00,84.6,67.7,29.97,SW,235,2.2,3.1,57,0.00,,---,0.00,VWS V14.01,2013-08-31 14:59:00,
2013-08-31 11:04:00,84.6,67.7,29.94,WSW,248,3.1,3.1,57,0.00,,---,0.00,VWS V14.01,2013-08-31 15:04:00,
2013-08-31 11:09:00,84.6,67.7,29.94,West,260,0.0,0.0,57,0.00,,---,0.00,VWS V14.01,2013-08-31 15:09:00,
2013-08-31 11:14:00,84.7,66.3,29.94,SE,129,0.0,0.0,54,0.00,,---,0.00,VWS V14.01,2013-08-31 15:14:00,
2013-08-31 11:19:00,85.1,67.1,29.94,SSE,162,3.1,3.1,55,0.00,,---,0.00,VWS V14.01,2013-08-31 15:19:00,
2013-08-31 11:24:00,85.5,65.3,29.94,South,171,4.9,4.9,51,0.00,,---,0.00,VWS V14.01,2013-08-31 15:24:00,
2013-08-31 11:29:00,85.8,66.2,29.94,SW,218,0.0,0.0,52,0.00,,---,0.00,VWS V14.01,2013-08-31 15:29:00,
2013-08-31 11:34:00,85.8,66.2,29.97,East,93,0.0,2.7,52,0.00,,---,0.00,VWS V14.01,2013-08-31 15:34:00,
2013-08-31 11:39:00,86.2,65.9,29.97,WSW,238,3.6,3.6,51,0.00,,---,0.00,VWS V14.01,2013-08-31 15:39:00,
2013-08-31 11:44:00,86.4,64.4,29.97,SW,217,2.7,3.6,48,0.00,,---,0.00,VWS V14.01,2013-08-31 15:44:00,
2013-08-31 11:49:00,86.4,65.0,29.97,SSW,207,3.6,4.0,49,0.00,,---,0.00,VWS V14.01,2013-08-31 15:49:00,
2013-08-31 11:54:00,86.5,63.3,29.97,SW,224,3.1,3.1,46,0.00,,---,0.00,VWS V14.01,2013-08-31 15:54:00,
2013-08-31 11:59:00,86.9,65.5,29.97,SSW,212,2.7,3.1,49,0.00,,---,0.00,VWS V14.01,2013-08-31 15:59:00,
2013-08-31 12:04:00,87.1,63.2,29.97,West,264,2.7,3.1,45,0.00,,---,0.00,VWS V14.01,2013-08-31 16:04:00,
2013-08-31 12:09:00,87.3,65.2,29.97,SSW,196,2.7,2.7,48,0.00,,---,0.00,VWS V14.01,2013-08-31 16:09:00,
2013-08-31 12:14:00,87.3,65.2,29.97,SSW,198,0.0,0.0,48,0.00,,---,0.00,VWS V14.01,2013-08-31 16:14:00,
2013-08-31 12:19:00,87.1,65.6,29.97,SSW,198,0.0,0.0,49,0.00,,---,0.00,VWS V14.01,2013-08-31 16:19:00,
2013-08-31 12:24:00,86.7,65.3,29.97,SW,229,0.0,0.0,49,0.00,,---,0.00,VWS V14.01,2013-08-31 16:24:00,
2013-08-31 12:29:00,86.5,65.1,29.97,SW,226,2.2,4.0,49,0.00,,---,0.00,VWS V14.01,2013-08-31 16:29:00,
2013-08-31 12:34:00,86.5,64.5,29.94,South,185,0.0,0.0,48,0.00,,---,0.00,VWS V14.01,2013-08-31 16:34:00,
2013-08-31 12:39:00,86.9,63.7,29.94,SSW,210,2.2,3.6,46,0.00,,---,0.00,VWS V14.01,2013-08-31 16:39:00,
2013-08-31 12:44:00,87.1,65.0,29.94,SSW,207,3.6,3.6,48,0.00,,---,0.00,VWS V14.01,2013-08-31 16:44:00,
2013-08-31 12:49:00,87.4,64.1,29.94,SE,125,2.2,3.1,46,0.00,,---,0.00,VWS V14.01,2013-08-31 16:49:00,
2013-08-31 12:54:00,88.0,62.7,29.94,SW,229,0.0,0.0,43,0.00,,---,0.00,VWS V14.01,2013-08-31 16:54:00,
2013-08-31 12:59:00,88.5,61.1,29.94,WSW,258,2.7,3.6,40,0.00,,---,0.00,VWS V14.01,2013-08-31 16:59:00,
2013-08-31 13:04:00,88.9,60.8,29.94,SSW,208,0.0,0.0,39,0.00,,---,0.00,VWS V14.01,2013-08-31 17:04:00,
2013-08-31 13:09:00,89.2,62.5,29.94,South,173,0.0,3.6,41,0.00,,---,0.00,VWS V14.01,2013-08-31 17:09:00,
2013-08-31 13:14:00,89.6,62.1,29.94,SSW,211,0.0,0.0,40,0.00,,---,0.00,VWS V14.01,2013-08-31 17:14:00,
2013-08-31 13:19:00,89.6,62.1,29.97,South,179,3.1,3.1,40,0.00,,---,0.00,VWS V14.01,2013-08-31 17:19:00,
2013-08-31 13:24:00,89.2,62.5,29.97,SW,236,2.7,2.7,41,0.00,,---,0.00,VWS V14.01,2013-08-31 17:24:00,
2013-08-31 13:29:00,88.7,61.3,29.97,SW,235,2.2,3.1,40,0.00,,---,0.00,VWS V14.01,2013-08-31 17:29:00,
2013-08-31 13:34:00,88.2,60.8,29.94,WSW,238,3.1,3.1,40,0.00,,---,0.00,VWS V14.01,2013-08-31 17:34:00,
2013-08-31 13:39:00,88.2,60.8,29.94,WSW,249,0.0,0.0,40,0.00,,---,0.00,VWS V14.01,2013-08-31 17:39:00,
2013-08-31 13:44:00,88.7,62.0,29.94,South,176,0.0,0.0,41,0.00,,---,0.00,VWS V14.01,2013-08-31 17:44:00,
2013-08-31 13:49:00,89.4,62.6,29.94,SSE,157,0.0,0.0,41,0.00,,---,0.00,VWS V14.01,2013-08-31 17:49:00,
2013-08-31 13:54:00,89.8,62.3,29.94,SSE,166,0.0,0.0,40,0.00,,---,0.00,VWS V14.01,2013-08-31 17:54:00,
2013-08-31 13:59:00,89.8,60.8,29.94,SW,235,2.2,2.2,38,0.00,,---,0.00,VWS V14.01,2013-08-31 17:59:00,
2013-08-31 14:04:00,90.1,61.9,29.94,SSE,150,2.2,3.1,39,0.00,,---,0.00,VWS V14.01,2013-08-31 18:04:00,
2013-08-31 14:09:00,90.7,62.3,29.94,SE,138,3.1,3.1,39,0.00,,---,0.00,VWS V14.01,2013-08-31 18:09:00,
2013-08-31 14:14:00,90.9,62.5,29.94,SSW,205,2.2,3.1,39,0.00,,---,0.00,VWS V14.01,2013-08-31 18:14:00,
2013-08-31 14:19:00,90.9,61.8,29.94,West,265,3.1,3.1,38,0.00,,---,0.00,VWS V14.01,2013-08-31 18:19:00,
2013-08-31 14:24:00,90.5,61.5,29.94,West,266,3.1,3.1,38,0.00,,---,0.00,VWS V14.01,2013-08-31 18:24:00,
2013-08-31 14:29:00,90.7,61.6,29.94,WNW,288,3.1,3.1,38,0.00,,---,0.00,VWS V14.01,2013-08-31 18:29:00,
2013-08-31 14:34:00,90.9,61.8,29.94,South,173,2.2,2.2,38,0.00,,---,0.00,VWS V14.01,2013-08-31 18:34:00,
2013-08-31 14:39:00,90.5,61.5,29.94,SSW,205,3.1,3.6,38,0.00,,---,0.00,VWS V14.01,2013-08-31 18:39:00,
2013-08-31 14:44:00,90.5,61.5,29.94,SSE,167,2.7,3.1,38,0.00,,---,0.00,VWS V14.01,2013-08-31 18:44:00,
2013-08-31 14:49:00,90.5,61.5,29.94,ESE,119,2.2,5.8,38,0.00,,---,0.00,VWS V14.01,2013-08-31 18:49:00,
2013-08-31 14:54:00,89.6,60.7,29.94,West,265,3.1,4.0,38,0.00,,---,0.00,VWS V14.01,2013-08-31 18:54:00,
2013-08-31 14:59:00,88.2,60.1,29.94,ESE,120,2.7,3.1,39,0.00,,---,0.00,VWS V14.01,2013-08-31 18:59:00,
2013-08-31 15:04:00,86.9,59.7,29.91,SE,140,0.0,3.1,40,0.00,,---,0.00,VWS V14.01,2013-08-31 19:04:00,
2013-08-31 15:09:00,85.1,59.5,29.91,SE,146,5.8,5.8,42,0.00,,---,0.00,VWS V14.01,2013-08-31 19:09:00,
2013-08-31 15:14:00,83.8,59.0,29.91,SSW,192,4.9,4.9,43,0.00,,---,0.00,VWS V14.01,2013-08-31 19:14:00,
2013-08-31 15:19:00,83.3,58.5,29.91,South,178,4.9,4.9,43,0.00,,---,0.00,VWS V14.01,2013-08-31 19:19:00,
2013-08-31 15:24:00,82.8,58.0,29.91,SSW,211,3.1,6.3,43,0.00,,---,0.00,VWS V14.01,2013-08-31 19:24:00,
2013-08-31 15:29:00,81.7,58.3,29.91,SSW,199,3.6,3.6,45,0.00,,---,0.00,VWS V14.01,2013-08-31 19:29:00,
2013-08-31 15:34:00,81.0,60.0,29.94,South,190,3.6,4.0,49,0.00,,---,0.00,VWS V14.01,2013-08-31 19:34:00,
2013-08-31 15:39:00,80.2,59.9,29.94,SSE,158,4.0,4.0,50,0.00,,---,0.00,VWS V14.01,2013-08-31 19:39:00,
2013-08-31 15:44:00,79.9,60.2,29.94,SSW,207,2.7,3.6,51,0.00,,---,0.00,VWS V14.01,2013-08-31 19:44:00,
2013-08-31 15:49:00,79.7,60.5,29.91,SW,230,4.9,4.9,52,0.00,,---,0.00,VWS V14.01,2013-08-31 19:49:00,
2013-08-31 15:54:00,79.5,62.5,29.91,West,265,3.1,3.6,56,0.00,,---,0.00,VWS V14.01,2013-08-31 19:54:00,
2013-08-31 16:00:00,79.2,62.6,29.91,WSW,244,0.0,0.0,57,0.00,,---,0.00,VWS V14.01,2013-08-31 20:00:00,
2013-08-31 16:05:00,78.6,60.1,29.94,WSW,254,0.0,0.0,53,0.00,,---,0.00,VWS V14.01,2013-08-31 20:05:00,
2013-08-31 16:10:00,78.6,60.1,29.94,SSW,209,0.0,0.0,53,0.00,,---,0.00,VWS V14.01,2013-08-31 20:10:00,
2013-08-31 16:15:00,78.6,60.6,29.94,SW,220,0.0,2.7,54,0.00,,---,0.00,VWS V14.01,2013-08-31 20:15:00,
2013-08-31 16:20:00,78.4,60.4,29.91,SW,219,3.6,3.6,54,0.00,,---,0.00,VWS V14.01,2013-08-31 20:20:00,
2013-08-31 16:25:00,78.1,60.6,29.91,SSW,193,3.1,3.6,55,0.00,,---,0.00,VWS V14.01,2013-08-31 20:25:00,
2013-08-31 16:30:00,77.9,61.0,29.91,SW,224,3.1,3.1,56,0.00,,---,0.00,VWS V14.01,2013-08-31 20:30:00,
2013-08-31 16:35:00,77.7,60.3,29.91,SW,236,0.0,0.0,55,0.00,,---,0.00,VWS V14.01,2013-08-31 20:35:00,
2013-08-31 16:40:00,77.7,60.8,29.91,SW,223,0.0,0.0,56,0.00,,---,0.00,VWS V14.01,2013-08-31 20:40:00,
2013-08-31 16:45:00,77.7,60.3,29.91,WSW,243,0.0,0.0,55,0.00,,---,0.00,VWS V14.01,2013-08-31 20:45:00,
2013-08-31 16:50:00,77.7,59.8,29.94,SW,227,3.6,3.6,54,0.00,,---,0.00,VWS V14.01,2013-08-31 20:50:00,
2013-08-31 16:55:00,77.5,59.1,29.94,WSW,253,3.6,3.6,53,0.00,,---,0.00,VWS V14.01,2013-08-31 20:55:00,
2013-08-31 17:00:00,77.4,58.9,29.94,SSW,193,0.0,0.0,53,0.00,,---,0.00,VWS V14.01,2013-08-31 21:00:00,
2013-08-31 17:05:00,77.5,59.1,29.91,SSW,196,0.0,0.0,53,0.00,,---,0.00,VWS V14.01,2013-08-31 21:05:00,
2013-08-31 17:10:00,77.5,59.1,29.91,SSW,192,0.0,0.0,53,0.00,,---,0.00,VWS V14.01,2013-08-31 21:10:00,
2013-08-31 17:15:00,77.5,59.1,29.91,SE,144,2.2,2.2,53,0.00,,---,0.00,VWS V14.01,2013-08-31 21:15:00,
2013-08-31 17:20:00,77.5,59.1,29.91,SSW,211,0.0,0.0,53,0.00,,---,0.00,VWS V14.01,2013-08-31 21:20:00,
2013-08-31 17:25:00,77.5,59.1,29.91,South,187,0.0,0.0,53,0.00,,---,0.00,VWS V14.01,2013-08-31 21:25:00,
2013-08-31 17:30:00,77.7,59.8,29.91,SSW,203,4.0,4.0,54,0.00,,---,0.00,VWS V14.01,2013-08-31 21:30:00,
2013-08-31 17:35:00,77.9,62.0,29.91,WSW,241,0.0,0.0,58,0.00,,---,0.00,VWS V14.01,2013-08-31 21:35:00,
2013-08-31 17:40:00,77.9,60.5,29.91,West,263,0.0,0.0,55,0.00,,---,0.00,VWS V14.01,2013-08-31 21:40:00,
2013-08-31 17:45:00,77.9,60.5,29.91,WSW,257,0.0,0.0,55,0.00,,---,0.00,VWS V14.01,2013-08-31 21:45:00,
2013-08-31 17:50:00,77.9,60.5,29.91,WSW,257,0.0,0.0,55,0.00,,---,0.00,VWS V14.01,2013-08-31 21:50:00,
2013-08-31 17:55:00,77.9,60.5,29.91,WSW,257,0.0,0.0,55,0.00,,---,0.00,VWS V14.01,2013-08-31 21:55:00,
2013-08-31 18:00:00,77.9,59.9,29.91,WSW,257,0.0,0.0,54,0.00,,---,0.00,VWS V14.01,2013-08-31 22:00:00,
2013-08-31 18:05:00,77.9,59.9,29.91,SSW,196,0.0,0.0,54,0.00,,---,0.00,VWS V14.01,2013-08-31 22:05:00,
2013-08-31 18:10:00,77.9,61.0,29.91,NW,313,0.0,2.2,56,0.00,,---,0.00,VWS V14.01,2013-08-31 22:10:00,
2013-08-31 18:15:00,77.7,59.8,29.91,North,357,0.0,0.0,54,0.00,,---,0.00,VWS V14.01,2013-08-31 22:15:00,
2013-08-31 18:20:00,77.7,59.8,29.91,North,0,0.0,0.0,54,0.00,,---,0.00,VWS V14.01,2013-08-31 22:20:00,
2013-08-31 18:25:00,77.5,59.6,29.91,North,0,0.0,0.0,54,0.00,,---,0.00,VWS V14.01,2013-08-31 22:25:00,
2013-08-31 18:30:00,77.5,59.6,29.91,North,0,0.0,0.0,54,0.00,,---,0.00,VWS V14.01,2013-08-31 22:30:00,
2013-08-31 18:35:00,77.7,61.3,29.91,West,271,0.0,0.0,57,0.00,,---,0.00,VWS V14.01,2013-08-31 22:35:00,
2013-08-31 18:40:00,77.5,60.1,29.91,West,271,0.0,0.0,55,0.00,,---,0.00,VWS V14.01,2013-08-31 22:40:00,
2013-08-31 18:45:00,77.4,60.0,29.91,West,271,0.0,0.0,55,0.00,,---,0.00,VWS V14.01,2013-08-31 22:45:00,
2013-08-31 18:50:00,77.4,60.0,29.91,West,271,0.0,0.0,55,0.00,,---,0.00,VWS V14.01,2013-08-31 22:50:00,
2013-08-31 18:55:00,77.4,61.0,29.91,NNW,345,0.0,0.0,57,0.00,,---,0.00,VWS V14.01,2013-08-31 22:55:00,
2013-08-31 19:00:00,77.2,60.3,29.91,NNW,334,0.0,0.0,56,0.00,,---,0.00,VWS V14.01,2013-08-31 23:00:00,
2013-08-31 19:05:00,77.0,60.1,29.91,East,96,0.0,0.0,56,0.00,,---,0.00,VWS V14.01,2013-08-31 23:05:00,
2013-08-31 19:10:00,77.0,60.1,29.91,East,96,0.0,0.0,56,0.00,,---,0.00,VWS V14.01,2013-08-31 23:10:00,
2013-08-31 19:15:00,77.0,60.1,29.91,East,96,0.0,0.0,56,0.00,,---,0.00,VWS V14.01,2013-08-31 23:15:00,
2013-08-31 19:20:00,76.8,60.5,29.91,East,96,0.0,0.0,57,0.00,,---,0.00,VWS V14.01,2013-08-31 23:20:00,
2013-08-31 19:25:00,76.8,60.5,29.91,NE,38,0.0,0.0,57,0.00,,---,0.00,VWS V14.01,2013-08-31 23:25:00,
2013-08-31 19:30:00,76.6,60.3,29.91,North,353,0.0,0.0,57,0.00,,---,0.00,VWS V14.01,2013-08-31 23:30:00,
2013-08-31 19:35:00,76.6,60.3,29.91,NE,38,0.0,0.0,57,0.00,,---,0.00,VWS V14.01,2013-08-31 23:35:00,
2013-08-31 19:40:00,76.6,62.2,29.91,NNE,15,0.0,0.0,61,0.00,,---,0.00,VWS V14.01,2013-08-31 23:40:00,
2013-08-31 19:45:00,76.3,60.9,29.91,West,271,0.0,0.0,59,0.00,,---,0.00,VWS V14.01,2013-08-31 23:45:00,
2013-08-31 19:50:00,76.1,60.3,29.91,North,0,0.0,0.0,58,0.00,,---,0.00,VWS V14.01,2013-08-31 23:50:00,
2013-08-31 19:55:00,76.1,60.3,29.91,North,357,0.0,0.0,58,0.00,,---,0.00,VWS V14.01,2013-08-31 23:55:00,
2013-08-31 20:00:00,75.9,60.1,29.91,North,357,0.0,0.0,58,0.00,,---,0.00,VWS V14.01,2013-09-01 00:00:00,
2013-08-31 20:05:00,75.7,59.9,29.91,North,357,0.0,0.0,58,0.00,,---,0.00,VWS V14.01,2013-09-01 00:05:00,
2013-08-31 20:10:00,75.6,59.8,29.91,North,357,0.0,0.0,58,0.00,,---,0.00,VWS V14.01,2013-09-01 00:10:00,
2013-08-31 20:15:00,75.4,59.6,29.91,North,357,0.0,0.0,58,0.00,,---,0.00,VWS V14.01,2013-09-01 00:15:00,
2013-08-31 20:20:00,75.0,59.3,29.94,North,357,0.0,0.0,58,0.00,,---,0.00,VWS V14.01,2013-09-01 00:20:00,
2013-08-31 20:25:00,75.0,60.2,29.94,North,357,0.0,0.0,60,0.00,,---,0.00,VWS V14.01,2013-09-01 00:25:00,
2013-08-31 20:30:00,74.7,59.4,29.94,North,357,0.0,0.0,59,0.00,,---,0.00,VWS V14.01,2013-09-01 00:30:00,
2013-08-31 20:35:00,74.5,59.2,29.94,North,357,0.0,0.0,59,0.00,,---,0.00,VWS V14.01,2013-09-01 00:35:00,
2013-08-31 20:40:00,74.5,60.2,29.94,North,357,0.0,0.0,61,0.00,,---,0.00,VWS V14.01,2013-09-01 00:40:00,
2013-08-31 20:45:00,74.3,59.5,29.94,North,357,0.0,0.0,60,0.00,,---,0.00,VWS V14.01,2013-09-01 00:45:00,
2013-08-31 20:50:00,74.1,59.4,29.94,North,357,0.0,0.0,60,0.00,,---,0.00,VWS V14.01,2013-09-01 00:50:00,
2013-08-31 20:55:00,73.9,59.2,29.94,North,357,0.0,0.0,60,0.00,,---,0.00,VWS V14.01,2013-09-01 00:55:00,
2013-08-31 21:00:00,73.9,59.7,29.94,North,357,0.0,0.0,61,0.00,,---,0.00,VWS V14.01,2013-09-01 01:00:00,
2013-08-31 21:05:00,73.9,59.7,29.94,North,357,0.0,0.0,61,0.00,,---,0.00,VWS V14.01,2013-09-01 01:05:00,
2013-08-31 21:10:00,73.8,59.5,29.94,North,357,0.0,0.0,61,0.00,,---,0.00,VWS V14.01,2013-09-01 01:10:00,
2013-08-31 21:15:00,73.8,59.5,29.94,North,357,0.0,0.0,61,0.00,,---,0.00,VWS V14.01,2013-09-01 01:15:00,
2013-08-31 21:20:00,73.6,59.3,29.94,North,357,0.0,0.0,61,0.00,,---,0.00,VWS V14.01,2013-09-01 01:20:00,
2013-08-31 21:25:00,73.6,59.8,29.94,North,357,0.0,0.0,62,0.00,,---,0.00,VWS V14.01,2013-09-01 01:25:00,
2013-08-31 21:30:00,73.4,59.6,29.94,North,357,0.0,0.0,62,0.00,,---,0.00,VWS V14.01,2013-09-01 01:30:00,
2013-08-31 21:35:00,73.4,59.6,29.94,North,357,0.0,0.0,62,0.00,,---,0.00,VWS V14.01,2013-09-01 01:35:00,
2013-08-31 21:40:00,73.4,59.6,29.94,North,357,0.0,0.0,62,0.00,,---,0.00,VWS V14.01,2013-09-01 01:40:00,
2013-08-31 21:45:00,73.2,59.4,29.94,North,357,0.0,0.0,62,0.00,,---,0.00,VWS V14.01,2013-09-01 01:45:00,
2013-08-31 21:50:00,73.0,59.3,29.97,North,357,0.0,0.0,62,0.00,,---,0.00,VWS V14.01,2013-09-01 01:50:00,
2013-08-31 21:55:00,73.0,59.3,29.97,North,357,0.0,0.0,62,0.00,,---,0.00,VWS V14.01,2013-09-01 01:55:00,
2013-08-31 22:00:00,73.0,59.3,29.97,North,357,0.0,0.0,62,0.00,,---,0.00,VWS V14.01,2013-09-01 02:00:00,
2013-08-31 22:05:00,73.0,59.7,29.97,North,357,0.0,0.0,63,0.00,,---,0.00,VWS V14.01,2013-09-01 02:05:00,
2013-08-31 22:10:00,72.9,59.5,29.97,North,357,0.0,0.0,63,0.00,,---,0.00,VWS V14.01,2013-09-01 02:10:00,
2013-08-31 22:15:00,72.9,59.5,29.97,North,357,0.0,0.0,63,0.00,,---,0.00,VWS V14.01,2013-09-01 02:15:00,
2013-08-31 22:20:00,72.9,59.5,29.97,North,357,0.0,0.0,63,0.00,,---,0.00,VWS V14.01,2013-09-01 02:20:00,
2013-08-31 22:25:00,72.7,59.4,29.97,North,357,0.0,0.0,63,0.00,,---,0.00,VWS V14.01,2013-09-01 02:25:00,
2013-08-31 22:30:00,72.7,59.4,29.97,North,357,0.0,0.0,63,0.00,,---,0.00,VWS V14.01,2013-09-01 02:30:00,
2013-08-31 22:35:00,72.7,59.4,29.97,North,357,0.0,0.0,63,0.00,,---,0.00,VWS V14.01,2013-09-01 02:35:00,
2013-08-31 22:40:00,72.7,59.4,29.97,North,357,0.0,0.0,63,0.00,,---,0.00,VWS V14.01,2013-09-01 02:40:00,
2013-08-31 22:45:00,72.7,59.8,29.97,North,357,0.0,0.0,64,0.00,,---,0.00,VWS V14.01,2013-09-01 02:45:00,
2013-08-31 22:50:00,72.7,59.8,29.97,North,357,0.0,0.0,64,0.00,,---,0.00,VWS V14.01,2013-09-01 02:50:00,
2013-08-31 22:55:00,72.7,59.8,29.97,North,357,0.0,0.0,64,0.00,,---,0.00,VWS V14.01,2013-09-01 02:55:00,
2013-08-31 23:01:00,72.5,59.6,29.97,North,357,0.0,0.0,64,0.00,,---,0.00,VWS V14.01,2013-09-01 03:01:00,
2013-08-31 23:06:00,72.5,59.6,29.97,North,357,0.0,0.0,64,0.00,,---,0.00,VWS V14.01,2013-09-01 03:06:00,
2013-08-31 23:10:00,72.5,59.6,29.97,North,357,0.0,0.0,64,0.00,,---,0.00,VWS V14.01,2013-09-01 03:10:00,
2013-08-31 23:15:00,72.7,59.8,29.97,North,357,0.0,0.0,64,0.00,,---,0.00,VWS V14.01,2013-09-01 03:15:00,
2013-08-31 23:20:00,72.7,59.8,29.97,North,357,0.0,0.0,64,0.00,,---,0.00,VWS V14.01,2013-09-01 03:20:00,
2013-08-31 23:25:00,72.7,60.2,29.97,North,357,0.0,0.0,65,0.00,,---,0.00,VWS V14.01,2013-09-01 03:25:00,
2013-08-31 23:31:00,72.7,60.2,29.94,North,357,0.0,0.0,65,0.00,,---,0.00,VWS V14.01,2013-09-01 03:31:00,
2013-08-31 23:35:00,72.7,60.2,29.94,North,357,0.0,0.0,65,0.00,,---,0.00,VWS V14.01,2013-09-01 03:35:00,
2013-08-31 23:40:00,72.7,60.2,29.94,North,357,0.0,0.0,65,0.00,,---,0.00,VWS V14.01,2013-09-01 03:40:00,
2013-08-31 23:45:00,72.5,60.1,29.97,North,357,0.0,0.0,65,0.00,,---,0.00,VWS V14.01,2013-09-01 03:45:00,
2013-08-31 23:51:00,72.5,60.1,29.97,North,357,0.0,0.0,65,0.00,,---,0.00,VWS V14.01,2013-09-01 03:51:00,
2013-08-31 23:56:00,72.5,60.1,29.97,North,357,0.0,0.0,65,0.00,,---,0.00,VWS V14.01,2013-09-01 03:56:00,